Regional Weather Roundup
Issued by NWS Raleigh/Durham, NC

Home | Current Version | Previous Version | Text Only | Print | Product List | Glossary On
Versions: 1 2 3 4 5 6 7 8 9 10 11 12 13 14 15 16 17 18 19 20 21 22 23 24 25 26 27 28 29 30 31 32 33 34 35 36 37 38 39 40 41 42 43 44 45 46 47 48 49 50
000
ASUS42 KRAH 031310
RWRRAH
NORTH CAROLINA WEATHER ROUNDUP
NATIONAL WEATHER SERVICE RALEIGH NC
900 AM EDT WED JUN 03 2015

NOTE: "FAIR" INDICATES FEW OR NO CLOUDS BELOW 12,000 FEET WITH NO
SIGNIFICANT WEATHER AND/OR OBSTRUCTIONS TO VISIBILITY.

NCZ001-053-055-056-065-067-031400-
WESTERN NORTH CAROLINA

CITY           SKY/WX    TMP DP  RH WIND       PRES   REMARKS
ASHEVILLE      PTSUNNY   61  57  87 S5        30.09R
JEFFERSON      CLOUDY    58  58 100 CALM      30.11R
MORGANTON      CLOUDY    64  64 100 NE3       30.10R
HICKORY        CLOUDY    63  61  93 NE13      30.06R FOG
RUTHERFORDTON  CLOUDY    65  63  93 NW3       30.07R
MOUNT AIRY     CLOUDY    62  58  87 NE6       30.11R
BOONE          DRIZZLE   58  58 100 E5        30.11R
$$

NCZ021-022-025-041-071-084-088-031400-
CENTRAL NORTH CAROLINA

CITY           SKY/WX    TMP DP  RH WIND       PRES   REMARKS
CHARLOTTE      DRIZZLE   68  63  84 NE8       30.05R
GREENSBORO     DRIZZLE   61  59  93 NE9G16    30.08R FOG
WINSTON-SALEM  CLOUDY    60  57  89 NE10G20   30.09R
RALEIGH-DURHAM CLOUDY    63  61  93 NE6       30.07R FOG
FORT BRAGG     CLOUDY    70  66  88 NE6       30.02R
FAYETTEVILLE   CLOUDY    69  66  90 NE6       30.02R
BURLINGTON     CLOUDY    61  59  93 N9        30.08R FOG
LAURINBURG     CLOUDY    68  65  90 VRB3      30.03R
$$

NCZ011-015-027-028-043-044-047-080-103-031400-
NORTHEASTERN NORTH CAROLINA

CITY           SKY/WX    TMP DP  RH WIND       PRES   REMARKS
ROCKY MT-WILSO CLOUDY    66  65  96 NE12      30.06R FOG
GREENVILLE     DRIZZLE   68  68 100 E5        30.06R
WASHINGTON     LGT RAIN  67  66  97 E8        30.08R
ELIZABETH CITY LGT RAIN  66  64  93 N13       30.07R
MANTEO         LGT RAIN  66  66  99 N10       30.06R
CAPE HATTERAS  CLOUDY    75  68  78 SW9       30.03S
$$

NCZ078-087-090-091-093-098-101-031400-
SOUTHEASTERN NORTH CAROLINA

CITY           SKY/WX    TMP DP  RH WIND       PRES   REMARKS
LUMBERTON      CLOUDY    69  66  90 NE5       30.01R
GOLDSBORO      CLOUDY    70  70 100 E6        30.01S
KINSTON        CLOUDY    70  68  94 E7        30.04R
KENANSVILLE    CLOUDY    69  68  96 CALM      30.04R FOG
NEW BERN       LGT RAIN  69  67  93 E7        30.06R
CHERRY POINT   RAIN      69  67  93 NE9       30.06R
BEAUFORT       RAIN      69  69 100 N6        30.05R FOG
JACKSONVILLE   RAIN      69  67  93 SE6       30.05R
WILMINGTON     LGT RAIN  69  67  93 E5        30.02S
$$



USA.gov is the U.S. government's official web portal to all federal, state and local government web resources and services.